Regional Weather Roundup
Issued by NWS Albany, NY

Home | Current Version | Previous Version | Text Only | Print | Product List | Glossary On
Versions: 1 2 3 4 5 6 7 8 9 10 11 12 13 14 15 16 17 18 19 20 21 22 23 24 25 26 27 28
000
ASUS41 KALY 260910
RWRALY

NEW YORK STATE HOURLY WEATHER ROUNDUP
NATIONAL WEATHER SERVICE ALBANY NY
500 AM EDT FRI AUG 26 2016

NOTE: "FAIR" INDICATES FEW OR NO CLOUDS BELOW 12,000 FEET WITH NO
SIGNIFICANT WEATHER AND/OR NO OBSTRUCTIONS TO VISIBILITY.

NYZ032-033-038>043-046>054-057>066-NYZ062>081-082-084-261000-
EAST


CITY           SKY/WX    TMP DP  RH WIND       PRES   REMARKS
ALBANY         CLOUDY    72  70  93 S8        29.93S
GLENS FALLS    CLOUDY    72  69  90 S7        29.92F FOG
POUGHKEEPSIE   FAIR      70  69  97 CALM      29.95S
NEWBURGH       CLEAR     70  70 100 CALM      29.98F
MONTGOMERY     FAIR      69  68  96 CALM      29.96F FOG
WHITE PLAINS   FAIR      74  70  87 CALM      29.98F
ISLIP          FAIR      74  70  87 SW9       29.98F
NEW YORK CITY  FAIR      78  70  76 S7        29.96F
CENTRAL PARK     N/A     77  70  78 MISG        N/A
$$

NYZ005>009-017-018-044>046-055-056-261000-
CENTRAL


CITY           SKY/WX    TMP DP  RH WIND       PRES   REMARKS
FULTON         CLOUDY    73  71  93 W12       29.95R
SYRACUSE       CLOUDY    74  71  91 W10       29.94R
ROME           CLOUDY    72  72 100 CALM      29.94R
ELMIRA         FAIR      71  68  90 SW3       29.99R
BINGHAMTON     MOCLDY    71  69  93 W9        30.01R
MONTICELLO     CLOUDY    70  68  94 CALM      30.02S VSB 1/2
$$

NYZ026>034-041>043-087-261000-
NORTH


CITY           SKY/WX    TMP DP  RH WIND       PRES   REMARKS
WATERTOWN      MOCLDY    72  69  90 CALM      29.93R
FORT DRUM      NOT AVBL
MASSENA        FAIR      71  68  90 SW6       29.90R
SARANAC LAKE   LGT RAIN  68  66  93 S6        29.94F FOG
PLATTSBURGH    LGT RAIN  70  68  93 CALM      29.88R
$$

NYZ001>004-010>016-019>021-085-261000-
WEST


CITY           SKY/WX    TMP DP  RH WIND       PRES   REMARKS
NIAGARA FALLS  FAIR      70  67  90 SW3       30.01R
BUFFALO        FAIR      71  69  93 W7        30.02R
DUNKIRK        FAIR      68  67  96 S3        30.04R
JAMESTOWN      FAIR      70  66  88 W5        30.08R
WELLSVILLE     MOCLDY    69  65  86 W12       30.10R
ROCHESTER      MOCLDY    74  71  91 NW10      29.99R
PENN YAN       CLOUDY    72  69  90 CALM      29.99R
$$

             KEY
       WCI = WIND CHILL INDEX
       VSB = VISIBILITY
       HX  = HEAT INDEX
$$




USA.gov is the U.S. government's official web portal to all federal, state and local government web resources and services.